• In United Kingdom
  • List of Countries
  • For 7 days
  • Water Temperature
  • Satellite Maps
  • Weather Map
  • Weather Widgets
  • user-avatar
    Login

    Hourly Weather Yaremcha

    Today, 22 August, Wednesday

    Time Temperature Precipitation Wind Pressure Humidity
    00:00 +20°C° 0 mm 1 mps 710 mmHg 100%
    01:00 +20°C° 0 mm 1 mps 711 mmHg 100%
    02:00 +18°C° 0 mm 0 mps 711 mmHg 100%
    03:00 +17°C° 0 mm 0 mps 711 mmHg 100%
    04:00 +17°C° 0 mm 0 mps 710 mmHg 100%
    05:00 +17°C° 0 mm 0 mps 711 mmHg 100%
    06:00 +18°C° 0 mm 1 mps 711 mmHg 100%
    07:00 +18°C° 0 mm 1 mps 711 mmHg 100%
    08:00 +19°C° 0 mm 1 mps 711 mmHg 100%
    09:00 +19°C° 0 mm 1 mps 711 mmHg 100%
    10:00 +19°C° 0 mm 1 mps 712 mmHg 100%
    11:00 +19°C° 0 mm 1 mps 712 mmHg 100%
    12:00 +21°C° 0 mm 1 mps 712 mmHg 100%
    13:00 +19°C° 0 mm 4 mps 712 mmHg 100%
    14:00 +19°C° 0 mm 3 mps 711 mmHg 100%
    15:00 +20°C° 0 mm 3 mps 711 mmHg 100%
    16:00 +20°C° 0 mm 2 mps 711 mmHg 99%
    17:00 +20°C° 0 mm 2 mps 711 mmHg 100%
    18:00 +19°C° 0 mm 3 mps 711 mmHg 100%
    19:00 +18°C° 0 mm 2 mps 711 mmHg 100%
    20:00 +19°C° 0 mm 1 mps 711 mmHg 100%
    21:00 +18°C° 0 mm 2 mps 711 mmHg 100%
    22:00 +19°C° 0 mm 1 mps 711 mmHg 100%
    23:00 +19°C° 0 mm 1 mps 711 mmHg 100%

    Tomorrow, 23 August, Thursday

    Time Temperature Precipitation Wind Pressure Humidity
    00:00 +19°C° 0 mm 1 mps 711 mmHg 100%
    01:00 +18°C° 0 mm 1 mps 711 mmHg 100%
    02:00 +18°C° 0 mm 1 mps 711 mmHg 100%
    03:00 +18°C° 0 mm 1 mps 710 mmHg 100%
    04:00 +18°C° 0 mm 1 mps 710 mmHg 100%
    05:00 +18°C° 0 mm 1 mps 710 mmHg 100%
    06:00 +17°C° 0 mm 2 mps 710 mmHg 100%
    07:00 +18°C° 0 mm 1 mps 710 mmHg 98%
    08:00 +19°C° 0 mm 2 mps 710 mmHg 100%
    09:00 +20°C° 0 mm 2 mps 710 mmHg 96%
    10:00 +23°C° 0 mm 2 mps 710 mmHg 94%
    11:00 +23°C° 0 mm 2 mps 710 mmHg 94%
    12:00 +24°C° 0 mm 2 mps 710 mmHg 96%
    13:00 +24°C° 0 mm 3 mps 710 mmHg 99%
    14:00 +22°C° 0 mm 4 mps 709 mmHg 100%
    15:00 +22°C° 0.1 mm 5 mps 709 mmHg 100%
    16:00 +22°C° 0.6 mm 3 mps 709 mmHg 98%
    17:00 +22°C° 0.3 mm 4 mps 708 mmHg 100%
    18:00 +22°C° 0.3 mm 4 mps 708 mmHg 100%
    19:00 +21°C° 0 mm 2 mps 708 mmHg 100%
    20:00 +21°C° 0 mm 2 mps 708 mmHg 100%
    21:00 +20°C° 0 mm 2 mps 708 mmHg 99%
    22:00 +21°C° 0 mm 1 mps 708 mmHg 96%
    23:00 +21°C° 0 mm 1 mps 708 mmHg 92%

    Day after tomorrow, 24 August, Friday

    Time Temperature Precipitation Wind Pressure Humidity
    00:00 +20°C° 0 mm 3 mps 708 mmHg 91%
    01:00 +19°C° 0 mm 4 mps 707 mmHg 92%
    02:00 +19°C° 0 mm 5 mps 707 mmHg 94%
    03:00 +19°C° 0 mm 5 mps 707 mmHg 94%
    04:00 +19°C° 0 mm 5 mps 706 mmHg 94%
    05:00 +19°C° 0 mm 5 mps 706 mmHg 93%
    06:00 +19°C° 0 mm 5 mps 706 mmHg 93%
    07:00 +19°C° 0 mm 5 mps 707 mmHg 93%
    08:00 +20°C° 0 mm 4 mps 707 mmHg 93%
    09:00 +21°C° 0 mm 4 mps 707 mmHg 92%
    10:00 +22°C° 0 mm 3 mps 708 mmHg 90%
    11:00 +24°C° 0 mm 3 mps 707 mmHg 88%
    12:00 +25°C° 0 mm 2 mps 707 mmHg 86%
    13:00 +25°C° 0.1 mm 2 mps 707 mmHg 87%
    14:00 +25°C° 0.4 mm 2 mps 706 mmHg 94%
    15:00 +25°C° 0.6 mm 2 mps 706 mmHg 92%
    16:00 +22°C° 1.7 mm 3 mps 705 mmHg 95%
    17:00 +22°C° 0.4 mm 3 mps 705 mmHg 92%
    18:00 +24°C° 0 mm 2 mps 705 mmHg 93%
    19:00 +23°C° 0 mm 1 mps 704 mmHg 98%
    20:00 +22°C° 0 mm 1 mps 704 mmHg 99%
    21:00 +22°C° 0 mm 1 mps 704 mmHg 96%
    22:00 +21°C° 0 mm 2 mps 704 mmHg 90%
    23:00 +20°C° 0 mm 4 mps 703 mmHg 89%

    25 August, Saturday

    Time Temperature Precipitation Wind Pressure Humidity
    00:00 +20°C° 0 mm 5 mps 703 mmHg 92%
    01:00 +19°C° 0 mm 6 mps 703 mmHg 93%
    02:00 +19°C° 0 mm 6 mps 702 mmHg 92%
    03:00 +19°C° 0 mm 6 mps 702 mmHg 91%
    04:00 +19°C° 0 mm 6 mps 702 mmHg 90%
    05:00 +19°C° 0 mm 6 mps 702 mmHg 89%
    06:00 +19°C° 0 mm 5 mps 702 mmHg 89%
    07:00 +19°C° 0 mm 4 mps 702 mmHg 90%
    08:00 +20°C° 0 mm 4 mps 702 mmHg 89%
    09:00 +21°C° 0 mm 3 mps 703 mmHg 89%
    10:00 +24°C° 0 mm 3 mps 703 mmHg 86%
    11:00 +23°C° 0 mm 4 mps 703 mmHg 85%
    12:00 +25°C° 0 mm 4 mps 703 mmHg 86%
    13:00 +25°C° 0 mm 4 mps 702 mmHg 85%
    14:00 +25°C° 0 mm 2 mps 702 mmHg 84%

    26 August, Sunday

    Time Temperature Precipitation Wind Pressure Humidity

    27 August, Monday

    Time Temperature Precipitation Wind Pressure Humidity
    Show more